Saxon Lake Weather Center

Moon Phase Calendar



Saxon Lake Water Level
Online Cameras

 


      

Current Conditions in Land O' Lakes
7/6/2022 9:24:38 AM

83°F
Feels Like 94
Clouds
Humidity
83%
Pressure
30.03"
Wind
3 mph (ESE)
Dew Point
78°F
UV Index
2/10 (Low)
Visibility
6 mi

Hourly Forecast

Date & Time Wed, Jul 6
9:00 AM
Wed, Jul 6
10:00 AM
Wed, Jul 6
11:00 AM
Wed, Jul 6
12:00 PM
Wed, Jul 6
1:00 PM
Wed, Jul 6
2:00 PM
Wed, Jul 6
3:00 PM
Wed, Jul 6
4:00 PM
Wed, Jul 6
5:00 PM
Wed, Jul 6
6:00 PM
Wed, Jul 6
7:00 PM
Wed, Jul 6
8:00 PM
Wed, Jul 6
9:00 PM
Wed, Jul 6
10:00 PM
Wed, Jul 6
11:00 PM
Thu, Jul 7
12:00 AM
Thu, Jul 7
1:00 AM
Thu, Jul 7
2:00 AM
Thu, Jul 7
3:00 AM
Thu, Jul 7
4:00 AM
Thu, Jul 7
5:00 AM
Thu, Jul 7
6:00 AM
Thu, Jul 7
7:00 AM
Thu, Jul 7
8:00 AM
Thu, Jul 7
9:00 AM
Thu, Jul 7
10:00 AM
Thu, Jul 7
11:00 AM
Thu, Jul 7
12:00 PM
Thu, Jul 7
1:00 PM
Thu, Jul 7
2:00 PM
Thu, Jul 7
3:00 PM
Thu, Jul 7
4:00 PM
Thu, Jul 7
5:00 PM
Thu, Jul 7
6:00 PM
Thu, Jul 7
7:00 PM
Thu, Jul 7
8:00 PM
Thu, Jul 7
9:00 PM
Thu, Jul 7
10:00 PM
Thu, Jul 7
11:00 PM
Fri, Jul 8
12:00 AM
Fri, Jul 8
1:00 AM
Fri, Jul 8
2:00 AM
Fri, Jul 8
3:00 AM
Fri, Jul 8
4:00 AM
Fri, Jul 8
5:00 AM
Fri, Jul 8
6:00 AM
Fri, Jul 8
7:00 AM
Fri, Jul 8
8:00 AM
Condition
Clouds

Clouds

Clouds

Rain

Rain

Clouds

Clouds

Clouds

Clouds

Clouds

Rain

Clouds

Clouds

Clouds

Clouds

Rain

Clouds

Clouds

Rain

Rain

Rain

Rain

Rain

Clouds

Clouds

Rain

Rain

Rain

Rain

Clouds

Clouds

Rain

Clouds

Rain

Rain

Clouds

Rain

Rain

Clouds

Rain

Clouds

Clouds

Clouds

Clouds

Clouds

Rain

Clouds

Rain
Temperature 83°F84°F85°F87°F90°F93°F94°F94°F93°F89°F86°F86°F85°F84°F83°F82°F82°F81°F81°F80°F79°F78°F79°F81°F84°F86°F88°F91°F93°F94°F93°F89°F88°F88°F87°F85°F83°F82°F82°F81°F81°F81°F80°F79°F78°F78°F77°F79°F
Feels Like 94°F93°F94°F96°F98°F100°F101°F101°F100°F96°F93°F93°F91°F90°F89°F88°F87°F86°F86°F85°F80°F80°F80°F86°F91°F94°F96°F98°F100°F100°F100°F96°F95°F96°F95°F93°F90°F88°F87°F86°F86°F85°F80°F79°F80°F79°F79°F79°F
Cloudiness 57%53%45%35%26%30%100%99%91%91%91%92%75%68%52%41%35%33%36%63%48%44%41%44%74%69%74%78%78%80%92%93%94%91%91%91%77%82%75%68%56%48%65%53%40%36%44%53%
Visibility 6 mi6 mi6 mi6 mi6 mi6 mi6 mi6 mi6 mi6 mi6 mi6 mi6 mi6 mi6 mi6 mi6 mi6 mi6 mi6 mi6 mi6 mi6 mi6 mi6 mi6 mi6 mi6 mi6 mi6 mi6 mi6 mi6 mi6 mi6 mi6 mi6 mi6 mi6 mi6 mi6 mi6 mi6 mi6 mi6 mi6 mi6 mi6 mi
Precipitation 44%55%68%73%73%73%4%7%4%18%23%27%26%43%55%53%49%45%33%40%44%51%54%58%38%57%66%84%91%71%24%32%15%43%43%58%65%81%78%80%75%67%16%16%20%27%27%27%
Humidity 83%80%74%67%59%48%45%45%49%58%63%65%66%68%71%74%75%76%77%78%84%85%85%79%72%66%60%54%50%47%49%58%60%60%62%69%74%75%76%77%77%78%80%82%84%85%86%82%
Dew Point 78°F77°F76°F75°F73°F71°F70°F70°F71°F72°F72°F73°F72°F73°F73°F73°F73°F73°F73°F73°F73°F73°F74°F74°F74°F73°F73°F72°F72°F71°F71°F72°F73°F73°F73°F74°F74°F73°F73°F73°F73°F73°F73°F73°F73°F73°F73°F73°F
Pressure 30.03"30.03"30.03"30.03"30.03"30"29.97"29.94"29.94"29.94"29.94"29.97"29.97"29.97"30"30"29.97"29.97"29.97"29.97"29.97"29.97"30"30"30.03"30.03"30.03"30.03"30.03"30"30"30"30"29.97"30"30"30"30"30.03"30.03"30.03"30.03"30"30.03"30.03"30.03"30.06"30.06"
Wind Speed 4.8 mph4.5 mph4.8 mph4.8 mph4.7 mph4 mph1.8 mph3.3 mph5 mph6.5 mph4.4 mph3.7 mph3 mph2 mph2 mph1 mph1.4 mph2.5 mph3.2 mph3.9 mph3.3 mph3 mph3.3 mph4.5 mph4.7 mph4.6 mph2.8 mph2.1 mph2.4 mph3.5 mph6.7 mph9.7 mph8.2 mph6.2 mph4.6 mph6 mph4.6 mph4.8 mph3.2 mph2.1 mph1 mph2.1 mph3.8 mph4.4 mph4.6 mph4.6 mph4.7 mph4.9 mph
Wind
Direction
94°
E
74°
ENE
67°
ENE
68°
ENE
62°
ENE
55°
NE
357°
N
275°
W
281°
W
308°
NW
298°
WNW
304°
NW
321°
NW
334°
NNW
349°
N
35°
NE
119°
ESE
159°
SSE
164°
SSE
166°
SSE
167°
SSE
174°
S
156°
SSE
163°
SSE
173°
S
177°
S
192°
SSW
204°
SSW
190°
S
200°
SSW
229°
SW
243°
WSW
235°
SW
233°
SW
254°
WSW
258°
WSW
268°
W
250°
WSW
258°
WSW
267°
W
191°
S
124°
SE
119°
ESE
123°
ESE
124°
SE
119°
ESE
132°
SE
140°
SE

Daily Forecast

Date High Low Precip. Humidity
Today
Jul 6

Rain
94 °F
77 °F
89%
59%
Thursday
Jul 7

Rain
94 °F
78 °F
91%
50%
Friday
Jul 8

Rain
94 °F
78 °F
80%
46%
Saturday
Jul 9

Rain
90 °F
79 °F
38%
53%
Sunday
Jul 10

Clouds
92 °F
80 °F
2%
49%
Monday
Jul 11

Clouds
93 °F
80 °F
27%
44%
Tuesday
Jul 12

Rain
93 °F
80 °F
37%
44%
Wednesday
Jul 13

Rain
93 °F
80 °F
40%
49%
Thursday
Jul 14

Rain
88 °F
80 °F
100%
72%
Friday
Jul 15

Rain
80 °F
76 °F
100%
92%
Saturday
Jul 16

Rain
80 °F
74 °F
100%
91%
Sunday
Jul 17

Rain
83 °F
73 °F
97%
68%
Monday
Jul 18

Rain
76 °F
71 °F
100%
90%
Tuesday
Jul 19

Rain
93 °F
72 °F
58%
47%
Wednesday
Jul 20

Clouds
91 °F
75 °F
51%
51%
Thursday
Jul 21

Clouds
93 °F
77 °F
13%
48%

Temperature 8-14 Day Outlook



Precipitation 8-14 Day Outlook




Quick Links
Saxon Lake News
Saxon Lake Photos
Saxon Lake Videos




About Us
Contact Us
Site Map
Search Site
Advertise With Us
   
Saxon.LakesOnline.com
THE SAXON LAKE WEBSITE

Copyright 2022, Lakes Online
Privacy    |    Legal